Tyler, TX

6:45 AM CST on February 24, 2018 (GMT -0600)
Tyler Pounds

Weather History for KTYR - December, 2013

Change the Weather History Date:

Sunday, December 8, 2013

  Actual Average Record
Temperature  
Mean Temperature 36 °F 49 °F  
Max Temperature 40 °F 58 °F 84 °F (1956)
Min Temperature 31 °F 40 °F 16 °F (1950)
Degree Days  
Heating Degree Days 29 16  
Month to date heating degree days 122 124  
Since 1 July heating degree days 512 498  
Cooling Degree Days 0 0  
Month to date cooling degree days 5 0  
Year to date cooling degree days 2772 2411  
Moisture  
Dew Point 32 °F    
Average Humidity 84    
Maximum Humidity 92    
Minimum Humidity 76    
Precipitation  
Precipitation T in 0.12 in 2.82 in (1916)
Month to date precipitation 0.78 1.03  
Year to date precipitation 39.79 42.58  
Snow  
Snow 0.00 in - - ()
Month to date snowfall T  
Since 1 July snowfall T  
Snow Depth 0.00 in    
Sea Level Pressure  
Sea Level Pressure 30.16 in    
Wind  
Wind Speed 2 mph (SSE)    
Max Wind Speed 8 mph    
Max Gust Speed 9 mph    
Visibility 8 miles    
Events      
T = Trace of Precipitation, MM = Missing Value Source: NWS Daily Summary

Daily Weather History Graph

Daily Weather History Graph

Search for Another Location

Airport or City:

Trip Planner

Search our weather history database for the weather conditions in past years. The results will help you decide how hot, cold, wet, or windy it might be!

Date:

Astronomy

Dec. 08, 2013 Rise Set
Actual Time 7:10 AM CST 5:16 PM CST
Civil Twilight 6:43 AM CST 5:43 PM CST
Nautical Twilight 6:13 AM CST 6:13 PM CST
Astronomical Twilight 5:43 AM CST 6:43 PM CST
Moon 11:47 AM CST (12/8) 11:49 PM CST (12/8)
Length of Visible Light 10h 59m
Length of Day
10h 05m
Waxing Crescent, 40% of the Moon is Illuminated
Dec 8
Waxing Crescent
Dec 9
First Quarter
Dec 17
Full
Dec 25
Last Quarter
Jan 1
New

Hourly Weather History & Observations

Time (CST) Temp. Windchill Dew Point Humidity Pressure Visibility Wind Dir Wind Speed Gust Speed Precip Events Conditions
12:53 AM 30.9 °F 25.2 °F 26.1 °F 82% 30.27 in 10.0 mi ESE 5.8 mph - N/A   Overcast
1:42 AM 30.2 °F 24.3 °F 26.6 °F 86% 30.22 in 10.0 mi East 5.8 mph - N/A   Overcast
1:53 AM 30.9 °F 26.2 °F 26.1 °F 82% 30.24 in 10.0 mi ESE 4.6 mph - N/A   Overcast
2:53 AM 32.0 °F - 27.0 °F 82% 30.22 in 10.0 mi Calm Calm - N/A   Overcast
3:53 AM 32.0 °F - 27.0 °F 82% 30.21 in 10.0 mi Calm Calm - N/A   Overcast
4:50 AM 32.0 °F 28.7 °F 26.6 °F 80% 30.19 in 10.0 mi ESE 3.5 mph - N/A   Overcast
4:53 AM 32.0 °F - 27.0 °F 82% 30.21 in 10.0 mi Calm Calm - N/A   Overcast
5:03 AM 32.0 °F 28.7 °F 26.6 °F 80% 30.19 in 10.0 mi SE 3.5 mph - N/A   Overcast
5:14 AM 32.0 °F 28.7 °F 28.4 °F 87% 30.19 in 10.0 mi ESE 3.5 mph - N/A   Overcast
5:53 AM 32.0 °F 28.7 °F 28.9 °F 88% 30.20 in 5.0 mi SE 3.5 mph - N/A   Overcast
6:53 AM 32.0 °F - 28.9 °F 88% 30.20 in 10.0 mi Calm Calm - N/A   Overcast
7:53 AM 33.1 °F - 28.9 °F 85% 30.19 in 10.0 mi Calm Calm - N/A   Overcast
8:39 AM 33.8 °F - 28.4 °F 81% 30.19 in 9.0 mi Calm Calm - 0.00 in   Overcast
8:44 AM 33.8 °F - 28.4 °F 81% 30.19 in 8.0 mi Calm Calm - 0.00 in   Overcast
8:53 AM 33.1 °F - 28.9 °F 85% 30.20 in 7.0 mi Calm Calm - 0.00 in   Overcast
9:17 AM 33.8 °F - 30.2 °F 87% 30.20 in 8.0 mi Calm Calm - N/A   Overcast
9:53 AM 34.0 °F - 30.0 °F 85% 30.20 in 10.0 mi Calm Calm - N/A   Overcast
10:53 AM 35.1 °F 32.2 °F 30.9 °F 85% 30.19 in 10.0 mi Variable 3.5 mph - N/A   Overcast
11:53 AM 36.0 °F 32.1 °F 32.0 °F 86% 30.16 in 10.0 mi South 4.6 mph - N/A   Overcast
12:10 PM 35.6 °F 32.8 °F 30.2 °F 81% 30.14 in 10.0 mi SSW 3.5 mph - N/A   Overcast
12:53 PM 37.0 °F 34.5 °F 30.9 °F 79% 30.12 in 10.0 mi SW 3.5 mph - N/A   Overcast
1:53 PM 37.9 °F - 32.0 °F 79% 30.10 in 10.0 mi Calm Calm - N/A   Overcast
2:53 PM 39.0 °F - 33.1 °F 79% 30.08 in 10.0 mi Calm Calm - N/A   Overcast
3:53 PM 39.0 °F 36.8 °F 33.1 °F 79% 30.07 in 10.0 mi South 3.5 mph - N/A   Overcast
4:53 PM 39.0 °F - 34.0 °F 82% 30.09 in 10.0 mi Calm Calm - N/A   Overcast
5:53 PM 37.9 °F 34.4 °F 35.1 °F 89% 30.09 in 7.0 mi SSE 4.6 mph - N/A   Overcast
6:09 PM 37.4 °F 34.9 °F 35.6 °F 93% 30.09 in 6.0 mi South 3.5 mph - N/A   Overcast
6:25 PM 37.4 °F 34.9 °F 35.6 °F 93% 30.10 in 4.0 mi SSE 3.5 mph - N/A   Overcast
6:35 PM 37.4 °F 34.9 °F 35.6 °F 93% 30.10 in 4.0 mi SSE 3.5 mph - N/A   Overcast
6:53 PM 37.9 °F - 36.0 °F 93% 30.12 in 4.0 mi Calm Calm - N/A   Overcast
7:19 PM 37.4 °F 34.9 °F 35.6 °F 93% 30.12 in 4.0 mi SSE 3.5 mph - N/A   Overcast
7:36 PM 37.4 °F 34.9 °F 35.6 °F 93% 30.12 in 2.5 mi SSE 3.5 mph - N/A   Overcast
7:43 PM 37.4 °F 33.8 °F 35.6 °F 93% 30.13 in 3.0 mi SSE 4.6 mph - N/A   Overcast
7:53 PM 37.9 °F 35.5 °F 36.0 °F 93% 30.14 in 2.5 mi South 3.5 mph - N/A   Overcast
8:48 PM 37.4 °F 34.9 °F 35.6 °F 93% 30.13 in 4.0 mi South 3.5 mph - N/A   Overcast
8:53 PM 37.9 °F 35.5 °F 36.0 °F 93% 30.14 in 4.0 mi SSE 3.5 mph - N/A   Overcast
9:07 PM 37.4 °F 33.8 °F 35.6 °F 93% 30.14 in 2.0 mi SE 4.6 mph - N/A   Overcast
9:23 PM 37.4 °F - 35.6 °F 93% 30.15 in 3.0 mi Calm Calm - N/A   Overcast
9:53 PM 37.9 °F - 36.0 °F 93% 30.17 in 4.0 mi Calm Calm - N/A   Overcast
10:15 PM 39.2 °F - 35.6 °F 87% 30.16 in 7.0 mi Calm Calm - N/A   Overcast
10:53 PM 39.0 °F 36.8 °F 35.1 °F 86% 30.16 in 10.0 mi NNW 3.5 mph - N/A   Overcast
11:53 PM 37.9 °F - 35.1 °F 89% 30.16 in 10.0 mi Calm Calm - N/A   Overcast